• In Belgium
  • List of Countries
  • For 7 days
  • Water Temperature
  • Satellite Maps
  • Weather Map
  • Weather Widgets
  • user-avatar
    Login

    Hourly Weather Krasnobrodskiy

    Today, 25 May, Friday

    Time Temperature Precipitation Wind Pressure Humidity
    00:00 -1°C° 0 mm 2 mps 735 mmHg 88%
    01:00 0°C° 0 mm 3 mps 735 mmHg 88%
    02:00 0°C° 0 mm 3 mps 735 mmHg 88%
    03:00 0°C° 0 mm 3 mps 735 mmHg 89%
    04:00 0°C° 0 mm 4 mps 735 mmHg 88%
    05:00 0°C° 0 mm 4 mps 734 mmHg 87%
    06:00 +3°C° 0 mm 4 mps 734 mmHg 82%
    07:00 +3°C° 0.1 mm 5 mps 733 mmHg 77%
    08:00 +4°C° 0.1 mm 6 mps 732 mmHg 73%
    09:00 +6°C° 0.1 mm 7 mps 732 mmHg 69%
    10:00 +6°C° 0.7 mm 7 mps 731 mmHg 72%
    11:00 +6°C° 0.7 mm 7 mps 731 mmHg 75%
    12:00 +6°C° 0 mm 7 mps 731 mmHg 77%
    13:00 +5°C° 1.3 mm 7 mps 730 mmHg 81%
    14:00 +5°C° 1.3 mm 6 mps 730 mmHg 85%
    15:00 +4°C° 1.3 mm 6 mps 730 mmHg 89%
    16:00 +5°C° 0.5 mm 6 mps 730 mmHg 90%
    17:00 +6°C° 0.5 mm 5 mps 730 mmHg 91%
    18:00 +6°C° 0.5 mm 5 mps 730 mmHg 93%
    19:00 +6°C° 0.1 mm 4 mps 730 mmHg 94%
    20:00 +7°C° 0.1 mm 3 mps 730 mmHg 95%
    21:00 +8°C° 0.1 mm 3 mps 730 mmHg 96%
    22:00 +8°C° 0 mm 3 mps 729 mmHg 96%
    23:00 +8°C° 0 mm 3 mps 729 mmHg 97%

    Tomorrow, 26 May, Saturday

    Time Temperature Precipitation Wind Pressure Humidity
    00:00 +8°C° 0 mm 2 mps 729 mmHg 97%
    01:00 +8°C° 0.6 mm 2 mps 728 mmHg 97%
    02:00 +8°C° 0.6 mm 2 mps 728 mmHg 97%
    03:00 +9°C° 0.6 mm 2 mps 727 mmHg 98%
    04:00 +9°C° 2.1 mm 2 mps 727 mmHg 97%
    05:00 +9°C° 2.1 mm 2 mps 727 mmHg 97%
    06:00 +9°C° 2.1 mm 2 mps 727 mmHg 97%
    07:00 +9°C° 0.3 mm 2 mps 727 mmHg 96%
    08:00 +9°C° 0.3 mm 2 mps 727 mmHg 96%
    09:00 +10°C° 0.3 mm 2 mps 728 mmHg 95%
    10:00 +10°C° 0.1 mm 2 mps 728 mmHg 93%
    11:00 +12°C° 0.1 mm 2 mps 729 mmHg 92%
    12:00 +12°C° 0.1 mm 2 mps 729 mmHg 90%
    13:00 +12°C° 0.1 mm 2 mps 729 mmHg 89%
    14:00 +13°C° 0.1 mm 1 mps 730 mmHg 87%
    15:00 +13°C° 0.1 mm 1 mps 730 mmHg 86%
    16:00 +13°C° 0.1 mm 1 mps 729 mmHg 87%
    17:00 +13°C° 0.1 mm 1 mps 729 mmHg 88%
    18:00 +13°C° 0.1 mm 2 mps 729 mmHg 89%
    19:00 +13°C° 0.4 mm 2 mps 729 mmHg 92%
    20:00 +12°C° 0.4 mm 2 mps 729 mmHg 94%
    21:00 +12°C° 0.4 mm 2 mps 728 mmHg 97%
    22:00 +12°C° 0.7 mm 2 mps 728 mmHg 97%
    23:00 +13°C° 0.7 mm 2 mps 727 mmHg 96%

    Day after tomorrow, 27 May, Sunday

    Time Temperature Precipitation Wind Pressure Humidity
    00:00 +12°C° 0.7 mm 3 mps 727 mmHg 96%
    01:00 +12°C° 0.6 mm 3 mps 726 mmHg 94%
    02:00 +12°C° 0.6 mm 3 mps 726 mmHg 93%
    03:00 +12°C° 0.6 mm 4 mps 725 mmHg 92%
    04:00 +13°C° 0.4 mm 4 mps 725 mmHg 89%
    05:00 +13°C° 0.4 mm 4 mps 724 mmHg 86%
    06:00 +13°C° 0.4 mm 4 mps 724 mmHg 84%
    07:00 +15°C° 0.3 mm 5 mps 724 mmHg 80%
    08:00 +16°C° 0.3 mm 5 mps 724 mmHg 76%
    09:00 +17°C° 0.3 mm 5 mps 725 mmHg 73%
    10:00 +20°C° 0 mm 6 mps 725 mmHg 66%
    11:00 +22°C° 0 mm 6 mps 725 mmHg 60%
    12:00 +24°C° 0 mm 6 mps 725 mmHg 54%
    13:00 +24°C° 0 mm 6 mps 725 mmHg 53%
    14:00 +26°C° 0 mm 5 mps 725 mmHg 52%
    15:00 +26°C° 0 mm 5 mps 724 mmHg 52%
    16:00 +25°C° 0 mm 4 mps 724 mmHg 58%
    17:00 +23°C° 0 mm 4 mps 724 mmHg 63%
    18:00 +22°C° 0 mm 4 mps 724 mmHg 69%
    19:00 +19°C° 0 mm 3 mps 724 mmHg 77%
    20:00 +16°C° 0 mm 3 mps 724 mmHg 86%
    21:00 +13°C° 0 mm 2 mps 724 mmHg 94%
    22:00 +12°C° 0 mm 2 mps 723 mmHg 95%
    23:00 +12°C° 0 mm 2 mps 723 mmHg 95%

    28 May, Monday

    Time Temperature Precipitation Wind Pressure Humidity
    00:00 +12°C° 0 mm 1 mps 723 mmHg 96%
    01:00 +12°C° 0 mm 1 mps 722 mmHg 94%
    02:00 +12°C° 0 mm 2 mps 722 mmHg 92%
    03:00 +13°C° 0 mm 2 mps 721 mmHg 90%
    04:00 +13°C° 0 mm 2 mps 721 mmHg 89%
    05:00 +14°C° 0 mm 2 mps 721 mmHg 88%
    06:00 +14°C° 0 mm 2 mps 720 mmHg 86%
    07:00 +17°C° 0 mm 2 mps 720 mmHg 76%
    08:00 +20°C° 0 mm 3 mps 720 mmHg 65%
    09:00 +22°C° 0 mm 4 mps 720 mmHg 55%
    10:00 +23°C° 0 mm 5 mps 720 mmHg 51%
    11:00 +24°C° 0 mm 6 mps 720 mmHg 48%
    12:00 +26°C° 0 mm 7 mps 721 mmHg 44%
    13:00 +24°C° 0 mm 6 mps 721 mmHg 51%
    14:00 +23°C° 0 mm 6 mps 722 mmHg 58%
    15:00 +21°C° 0 mm 6 mps 722 mmHg 64%
    16:00 +20°C° 0 mm 5 mps 723 mmHg 70%
    17:00 +18°C° 0 mm 4 mps 724 mmHg 75%
    18:00 +16°C° 0 mm 3 mps 724 mmHg 80%
    19:00 +14°C° 0.4 mm 3 mps 725 mmHg 84%
    20:00 +12°C° 0.4 mm 3 mps 726 mmHg 88%
    21:00 +11°C° 0.4 mm 3 mps 727 mmHg 92%
    22:00 +10°C° 1.2 mm 3 mps 727 mmHg 93%
    23:00 +10°C° 1.2 mm 2 mps 727 mmHg 94%

    29 May, Tuesday

    Time Temperature Precipitation Wind Pressure Humidity
    00:00 +9°C° 1.2 mm 2 mps 728 mmHg 95%
    01:00 +9°C° 1 mm 2 mps 728 mmHg 95%
    02:00 +8°C° 1 mm 3 mps 729 mmHg 95%
    03:00 +8°C° 1 mm 3 mps 729 mmHg 94%
    04:00 +8°C° 0.3 mm 3 mps 729 mmHg 94%
    05:00 +7°C° 0.3 mm 4 mps 730 mmHg 93%
    06:00 +7°C° 0.3 mm 4 mps 730 mmHg 92%
    07:00 +8°C° 0 mm 4 mps 730 mmHg 86%
    08:00 +9°C° 0 mm 5 mps 731 mmHg 79%
    09:00 +11°C° 0 mm 6 mps 731 mmHg 73%
    10:00 +11°C° 0 mm 6 mps 731 mmHg 69%
    11:00 +13°C° 0 mm 6 mps 730 mmHg 66%
    12:00 +14°C° 0 mm 5 mps 730 mmHg 63%
    13:00 +15°C° 0 mm 5 mps 730 mmHg 61%
    14:00 +16°C° 0 mm 5 mps 730 mmHg 59%
    15:00 +19°C° 0 mm 6 mps 730 mmHg 57%
    16:00 +19°C° 0.1 mm 5 mps 730 mmHg 59%
    17:00 +19°C° 0.1 mm 4 mps 729 mmHg 61%
    18:00 +19°C° 0.1 mm 3 mps 729 mmHg 63%
    19:00 +17°C° 0 mm 3 mps 729 mmHg 69%
    20:00 +14°C° 0 mm 3 mps 729 mmHg 74%
    21:00 +13°C° 0 mm 2 mps 729 mmHg 80%
    22:00 +13°C° 0 mm 2 mps 728 mmHg 81%
    23:00 +12°C° 0 mm 2 mps 728 mmHg 82%

    30 May, Wednesday

    Time Temperature Precipitation Wind Pressure Humidity
    00:00 +12°C° 0 mm 2 mps 727 mmHg 83%
    01:00 +10°C° 0 mm 2 mps 727 mmHg 82%
    02:00 +10°C° 0 mm 3 mps 726 mmHg 80%
    03:00 +10°C° 0 mm 3 mps 726 mmHg 79%
    04:00 +11°C° 0 mm 3 mps 726 mmHg 75%
    05:00 +12°C° 0 mm 3 mps 725 mmHg 72%
    06:00 +12°C° 0 mm 3 mps 725 mmHg 68%
    07:00 +14°C° 0 mm 4 mps 725 mmHg 62%
    08:00 +18°C° 0 mm 4 mps 725 mmHg 56%
    09:00 +20°C° 0 mm 5 mps 725 mmHg 51%
    10:00 +21°C° 0 mm 5 mps 725 mmHg 45%
    11:00 +23°C° 0 mm 5 mps 724 mmHg 39%
    12:00 +25°C° 0 mm 5 mps 724 mmHg 33%
    13:00 +25°C° 0 mm 5 mps 724 mmHg 35%
    14:00 +25°C° 0 mm 5 mps 724 mmHg 38%
    15:00 +26°C° 0 mm 5 mps 724 mmHg 41%
    16:00 +25°C° 0 mm 4 mps 724 mmHg 43%
    17:00 +24°C° 0 mm 3 mps 724 mmHg 45%
    18:00 +22°C° 0 mm 3 mps 724 mmHg 48%
    19:00 +19°C° 0.3 mm 3 mps 725 mmHg 59%
    20:00 +17°C° 0.3 mm 4 mps 725 mmHg 70%
    21:00 +13°C° 0.3 mm 5 mps 726 mmHg 81%
    22:00 +13°C° 0.2 mm 4 mps 727 mmHg 84%
    23:00 +12°C° 0.2 mm 4 mps 728 mmHg 88%
    Show more